• Join FlightAware (Why Join?)
  • Login
  • US Flag 
11:59PM EDT


 

Airport Tracker/Info


-or-


 

Live Flight TrackerFlight Track Log ✈ EJA929 ✈ 19-Feb-2014 ✈ KRIL - KBED

Flight Track Log - Related Links

Times and Time Zones

All times are in EST time to prevent confusion due to time zone crossing. See the EJA929 flight status page for this flight to view local times or setup timezone preferences in your user account.

Time Position Orientation Groundspeed Altitude Reporting Facility
EST Latitude Longitude Course Direction KTS MPH feet Rate Location/Type
05:06PM 39.5264 -107.7150 72° East 10 12 5,600  Level Denver Center
05:07PM 39.5253 -107.7561 268° West 92 106 6,500 1,860 Climbing Denver Center
05:08PM 39.5186 -107.8422 264° West 204 235 9,500 3,360 Climbing Denver Center
05:09PM 39.4842 -107.9311 243° Southwest 268 308 13,500 3,360 Climbing Denver Center
05:10PM 39.3875 -107.9356 182° South 346 398 16,500 2,220 Climbing Denver Center
05:11PM 39.3633 -107.8111 104° East 403 464 18,200 1,620 Climbing Denver Center
05:13PM 39.7872 -106.6708 72° East  Level Estimated
05:13PM 39.3831 -107.6406 81° East 426 490 19,900  Level Denver Center
05:14PM 39.3994 -107.4928 82° East 434 499 21,300 1,500 Climbing Denver Center
05:15PM 39.4189 -107.3167 82° East 442 509 23,000 1,440 Climbing Denver Center
05:16PM 39.4364 -107.1606 82° East 454 522 24,300 1,200 Climbing Denver Center
05:17PM 39.4572 -106.9711 82° East 475 547 25,600 1,080 Climbing Denver Center
05:18PM 39.4744 -106.8044 82° East 486 559 26,600 1,200 Climbing Denver Center
05:19PM 39.4961 -106.6042 82° East 503 579 28,100 1,380 Climbing Denver Center
05:20PM 39.5122 -106.4508 82° East 513 590 29,500 1,380 Climbing Denver Center
05:21PM 39.5361 -106.2189 82° East 540 621 31,000 1,380 Climbing Denver Center
05:22PM 39.5539 -106.0356 83° East 557 641 32,400 1,260 Climbing Denver Center
05:24PM 39.5964 -105.5883 83° East 573 659 35,000 780 Climbing Denver Center
05:25PM 39.6164 -105.3797 83° East 582 670 35,000  Level Denver Center
05:26PM 39.6356 -105.1642 83° East 598 688 35,000  Level Denver Center
05:27PM 39.6550 -104.9503 83° East 597 687 35,000 1,020 Level Denver Center
05:28PM 39.6728 -104.7378 84° East 582 670 37,200 2,220 Climbing Denver Center
05:29PM 39.6911 -104.5372 83° East 540 621 39,600 1,860 Climbing Denver Center
05:30PM 39.7072 -104.3467 84° East 529 609 41,100 660 Climbing Denver Center
05:31PM 39.7222 -104.1561 84° East 528 608 41,000 -60 Descending Denver Center
05:32PM 39.7383 -103.9569 84° East 548 631 41,000  Level Denver Center
05:33PM 39.7583 -103.7103 84° East 570 656 41,000  Level Denver Center
05:34PM 39.7742 -103.5039 84° East 574 661 41,000  Level Denver Center
05:35PM 39.7906 -103.2969 84° East 578 665 41,000  Level Denver Center
05:36PM 39.8064 -103.0875 84° East 582 670 41,000  Level Denver Center
05:37PM 39.8203 -102.8761 85° East 586 674 41,000  Level Denver Center
05:38PM 39.8364 -102.6567 84° East 585 673 41,000  Level Denver Center
05:39PM 39.8522 -102.4219 85° East 585 673 41,000  Level Denver Center
05:40PM 39.8656 -102.2222 85° East 582 670 41,000  Level Denver Center
05:41PM 39.8806 -101.9889 85° East 581 669 41,000  Level Denver Center
05:42PM 39.8925 -101.7886 85° East 581 669 41,000  Level Denver Center
05:44PM 39.9072 -101.5547 85° East 583 671 41,000  Level Denver Center
05:45PM 39.9192 -101.3539 86° East 583 671 41,000  Level Denver Center
05:46PM 39.9325 -101.1186 86° East 586 674 41,000  Level Denver Center
05:47PM 39.9433 -100.9158 86° East 588 677 41,000  Level Denver Center
05:48PM 39.9564 -100.6831 86° East 582 670 41,000  Level Denver Center
05:49PM 39.9661 -100.4842 86° East 579 666 41,000  Level Denver Center
05:50PM 39.9772 -100.2536 86° East 580 667 41,000  Level Denver Center
05:51PM 39.9875 -100.0428 86° East 584 672 41,000  Level Denver Center
05:52PM 39.9972 -99.8306 87° East 587 676 41,000  Level Denver Center
05:53PM 40.0061 -99.6189 87° East 587 676 41,000  Level Denver Center
05:54PM 40.0150 -99.4072 87° East 587 676 41,000  Level Denver Center
05:55PM 40.0247 -99.1489 87° East 595 685 41,000  Level Denver Center
05:56PM 40.0311 -98.9797 87° East 591 680 41,000  Level Minneapolis Center
05:57PM 40.0400 -98.7656 87° East 594 684 41,000  Level Minneapolis Center
05:58PM 40.0464 -98.5531 88° East 593 682 41,000  Level Minneapolis Center
05:59PM 40.0539 -98.3411 87° East 590 679 41,000  Level Minneapolis Center
06:00PM 40.0606 -98.1275 88° East 590 679 41,000  Level Minneapolis Center
06:01PM 40.0661 -97.9117 88° East 593 682 41,000  Level Minneapolis Center
06:02PM 40.0736 -97.6547 88° East 593 682 41,000  Level Minneapolis Center
06:03PM 40.0789 -97.4433 88° East 590 679 41,000  Level Minneapolis Center
06:04PM 40.0825 -97.2339 89° East 588 677 41,000  Level Minneapolis Center
06:05PM 40.0875 -97.0211 88° East 587 676 41,000  Level Minneapolis Center
06:06PM 40.0917 -96.8103 88° East 586 674 41,000  Level Minneapolis Center
06:07PM 40.0958 -96.6011 88° East 583 671 41,000  Level Minneapolis Center
06:08PM 40.1003 -96.3747 88° East 585 673 41,000  Level Kansas City Center
06:09PM 40.1033 -96.1628 89° East 588 677 41,000  Level Kansas City Center
06:10PM 40.1047 -95.9214 89° East 594 684 41,000  Level Kansas City Center
06:11PM 40.1067 -95.7158 89° East 591 680 41,000  Level Kansas City Center
06:12PM 40.1083 -95.4767 89° East 588 677 41,000  Level Kansas City Center
06:13PM 40.1103 -95.2689 89° East 594 684 41,000  Level Kansas City Center
06:14PM 40.1106 -95.0303 90° East 588 677 41,000  Level Kansas City Center
06:15PM 40.1111 -94.8233 90° East 590 679 41,000  Level Kansas City Center
06:16PM 40.1106 -94.6175 90° East 591 680 41,000  Level Kansas City Center
06:17PM 40.1108 -94.3767 90° East 593 682 41,000  Level Kansas City Center
06:18PM 40.1100 -94.1700 90° East 593 682 41,000  Level Kansas City Center
06:19PM 40.1072 -93.9625 91° East 595 685 41,000  Level Kansas City Center
06:20PM 40.1044 -93.7086 91° East 589 678 41,000  Level Kansas City Center
06:21PM 40.1028 -93.4975 91° East 587 676 41,000  Level Kansas City Center
06:22PM 40.1008 -93.2850 91° East 589 678 41,000  Level Kansas City Center
06:24PM 40.1042 -93.0731 89° East 591 680 41,000  Level Kansas City Center
06:25PM 40.1528 -92.8461 74° East 589 678 41,000  Level Kansas City Center
06:26PM 40.2008 -92.6181 75° East 584 672 41,000  Level Kansas City Center
06:27PM 40.2400 -92.4228 75° East 581 669 41,000  Level Kansas City Center
06:28PM 40.2825 -92.2367 73° East 589 678 41,000  Level Kansas City Center
06:29PM 40.3319 -91.9931 75° East 585 673 41,000  Level Kansas City Center
06:30PM 40.3731 -91.7908 75° East 581 669 41,000  Level Kansas City Center
06:31PM 40.4144 -91.5858 75° East 584 672 41,000  Level Kansas City Center
06:32PM 40.4550 -91.3819 75° East 583 671 41,000  Level Kansas City Center
06:33PM 40.5008 -91.1517 75° East 583 671 41,000  Level Kansas City Center
06:34PM 40.5494 -90.9056 75° East 583 671 41,000  Level Chicago Center
06:35PM 40.5886 -90.6989 76° East 582 670 41,000  Level Chicago Center
06:36PM 40.6278 -90.4936 76° East 579 666 41,000  Level Chicago Center
06:37PM 40.6672 -90.2872 76° East 580 667 41,000  Level Chicago Center
06:38PM 40.7103 -90.0603 76° East 580 667 41,000  Level Chicago Center
06:39PM 40.7483 -89.8556 76° East 577 664 41,000  Level Chicago Center
06:40PM 40.7867 -89.6506 76° East 579 666 41,000  Level Chicago Center
06:41PM 40.8239 -89.4450 76° East 581 669 41,000  Level Chicago Center
06:42PM 40.8617 -89.2364 76° East 583 671 41,000  Level Chicago Center
06:43PM 40.9058 -88.9897 77° East 577 664 41,000  Level Chicago Center
06:44PM 40.9403 -88.7853 77° East 575 662 41,000  Level Chicago Center
06:45PM 40.9750 -88.5814 77° East 573 659 41,000  Level Chicago Center
06:46PM 41.0106 -88.3786 77° East 571 657 41,000  Level Chicago Center
06:47PM 41.0519 -88.1369 77° East 567 652 41,000  Level Chicago Center
06:48PM 41.0858 -87.9347 77° East 570 656 41,000  Level Chicago Center
06:49PM 41.1203 -87.7328 77° East 570 656 41,000  Level Chicago Center
06:51PM 41.1533 -87.5286 78° East 571 657 41,000  Level Chicago Center
06:52PM 41.1847 -87.3261 78° East 566 651 41,000  Level Chicago Center
06:53PM 41.2233 -87.0833 78° East 563 648 41,000  Level Chicago Center
06:54PM 41.2572 -86.8789 78° East 566 651 41,000  Level Chicago Center
06:55PM 41.2906 -86.6608 78° East 567 652 41,000  Level Chicago Center
06:56PM 41.3217 -86.4564 78° East 567 652 41,000  Level Chicago Center
06:57PM 41.3522 -86.2494 79° East 570 656 41,000  Level Chicago Center
06:58PM 41.3833 -86.0422 79° East 573 659 41,000  Level Chicago Center
06:59PM 41.4131 -85.8342 79° East 572 658 41,000  Level Chicago Center
07:00PM 41.4431 -85.6253 79° East 580 667 41,000  Level Chicago Center
07:01PM 41.4794 -85.3800 79° East 563 648 41,000  Level Chicago Center
07:02PM 41.5072 -85.1725 80° East 587 676 41,000  Level Chicago Center
07:03PM 41.5375 -84.9650 79° East 582 670 41,000  Level Chicago Center
07:04PM 41.5664 -84.7533 80° East 582 670 41,000  Level Chicago Center
07:05PM 41.6003 -84.4981 80° East 584 672 41,000  Level Chicago Center
07:06PM 41.6286 -84.2858 80° East 583 671 41,000  Level Chicago Center
07:07PM 41.6561 -84.0783 80° East 586 674 41,000  Level Cleveland Center
07:08PM 41.6839 -83.8639 80° East 588 677 41,000  Level Cleveland Center
07:09PM 41.7164 -83.6089 80° East 588 677 41,000  Level Cleveland Center
07:10PM 41.7428 -83.3969 80° East 587 676 41,000  Level Cleveland Center
07:11PM 41.7686 -83.1844 81° East 586 674 41,000  Level Cleveland Center
07:12PM 41.7947 -82.9731 81° East 586 674 41,000  Level Cleveland Center
07:13PM 41.8192 -82.7608 81° East 584 672 41,000  Level Cleveland Center
07:14PM 41.8486 -82.5053 81° East 584 672 41,000  Level Cleveland Center
07:15PM 41.8728 -82.2892 81° East 584 672 41,000  Level Cleveland Center
07:16PM 41.8981 -82.0756 81° East 587 676 41,000  Level Cleveland Center
07:17PM 41.9217 -81.8583 82° East 586 674 41,000  Level Cleveland Center
07:18PM 41.9453 -81.6419 82° East 582 670 41,000  Level Cleveland Center
07:19PM 41.9692 -81.4264 81° East 577 664 41,000  Level Cleveland Center
07:20PM 41.9911 -81.2122 82° East 574 661 41,000  Level Cleveland Center
07:21PM 42.0161 -80.9661 82° East 568 654 41,000  Level Cleveland Center
07:23PM 42.0372 -80.7536 82° East 568 654 41,000  Level Cleveland Center
07:24PM 42.0581 -80.5425 82° East 566 651 41,000  Level Cleveland Center
07:25PM 42.0789 -80.3317 82° East 565 650 41,000  Level Cleveland Center
07:26PM 42.0992 -80.1219 83° East 561 646 41,000  Level Cleveland Center
07:27PM 42.1181 -79.9172 83° East 562 647 41,000  Level Cleveland Center
07:28PM 42.1369 -79.7097 83° East 561 646 41,000  Level Cleveland Center
07:29PM 42.1547 -79.5006 83° East 562 647 41,000  Level Cleveland Center
07:30PM 42.1764 -79.2511 83° East 562 647 41,000  Level Cleveland Center
07:31PM 42.1978 -79.0442 82° East 559 643 41,000  Level Cleveland Center
07:32PM 42.2214 -78.8547 80° East 557 641 41,000  Level Cleveland Center
07:33PM 42.2486 -78.6489 80° East 557 641 41,000  Level Cleveland Center
07:34PM 42.2792 -78.4003 80° East 560 644 41,000  Level Cleveland Center
07:35PM 42.3044 -78.1919 81° East 560 644 41,000  Level Cleveland Center
07:36PM 42.3294 -77.9836 81° East 563 648 41,000  Level Cleveland Center
07:37PM 42.3539 -77.7744 81° East 566 651 41,000  Level Cleveland Center
07:38PM 42.3792 -77.5658 81° East 572 658 41,000  Level Cleveland Center
07:39PM 42.4075 -77.3131 81° East 575 662 41,000  Level Cleveland Center
07:40PM 42.4317 -77.1003 81° East 576 663 41,000  Level Cleveland Center
07:41PM 42.4539 -76.8864 82° East 577 664 41,000  Level Cleveland Center
07:42PM 42.4775 -76.6719 81° East 579 666 41,000  Level Boston Center
07:43PM 42.5003 -76.4589 82° East 575 662 41,000  Level Boston Center
07:44PM 42.5242 -76.2231 82° East 576 663 41,000  Level Boston Center
07:45PM 42.5469 -76.0100 82° East 574 661 41,000  Level Boston Center
07:46PM 42.5681 -75.7989 82° East 570 656 41,000 -180 Level Boston Center
07:47PM 42.5883 -75.5917 82° East 563 648 40,700 -1,560 Descending Boston Center
07:48PM 42.6092 -75.3806 82° East 567 652 37,900 -3,180 Descending Boston Center
07:49PM 42.6331 -75.1264 83° East 572 658 34,300 -3,240 Descending Boston Center
07:50PM 42.6517 -74.9092 83° East 580 667 31,300 -2,640 Descending Boston Center
07:51PM 42.6728 -74.7006 82° East 566 651 29,000 -1,140 Descending Boston Center
07:52PM 42.6917 -74.4942 83° East 557 641 29,000  Level Boston Center
07:53PM 42.7094 -74.2881 83° East 553 636 29,000  Level Boston Center
07:54PM 42.7264 -74.0761 84° East 546 628 29,000  Level Boston Center
07:55PM 42.7411 -73.8692 84° East 551 634 29,000 -420 Level Boston Center
07:56PM 42.7331 -73.6592 93° East 550 633 28,200 -1,980 Descending Boston Center
07:57PM 42.7089 -73.4556 99° East 544 626 25,000 -2,100 Descending Boston Center
07:58PM 42.6892 -73.2708 98° East 491 565 24,000 -840 Descending Boston Center
07:59PM 42.6675 -73.0856 99° East 491 565 23,300 -1,320 Descending Boston Center
08:00PM 42.6464 -72.9019 99° East 474 545 21,400 -1,920 Descending Boston Center
08:01PM 42.6286 -72.7383 98° East 445 512 19,400 -2,040 Descending Boston Center
08:02PM 42.6072 -72.5689 100° East 450 518 17,300 -1,920 Descending Boston Center
08:04PM 42.5878 -72.4053 99° East 444 511 15,600 -2,040 Descending Boston Center
08:05PM 42.5678 -72.2336 99° East 398 458 13,200 -2,100 Descending Boston Center
08:06PM 42.5514 -72.1081 100° East 343 395 11,400 -1,860 Descending Boston Center
08:07PM 42.5392 -71.9825 97° East 316 364 9,500 -1,800 Descending Boston Center
08:08PM 42.5278 -71.8686 98° East 306 352 7,800 -1,920 Descending Boston Center
08:09PM 42.5167 -71.7586 98° East 296 341 5,600 -1,740 Descending Boston Center
08:10PM 42.5075 -71.6722 98° East 280 322 4,300 -1,260 Descending Boston Center
08:11PM 42.4961 -71.5633 98° East 236 272 3,100 -660 Descending Boston Center
08:12PM 42.4892 -71.4825 97° East 219 252 3,000 -480 Descending Boston Center
08:13PM 42.4828 -71.4192 98° East 172 198 2,200 -840 Descending Boston Center
08:14PM 42.4833 -71.3500 89° East 117 135 1,100 -660 Descending KA90
08:16PM 42.4689 -71.2714 104° East 131 151 300 -480 Descending Boston Center